Race Coverage Navigation

TS # 14 / Cortez, CO  2019

 


TS STATS
TS Distance 50.22 
Total Distance 884.23 
Miles To Go 2186.05 
TS Climbing 835 
Total Climbing
TS  Elevation
TS  Net Elevation 1309 
Map Filename Open Map 
Directions Filename  
Latitude 37.35 
Longitude -108.56 
Google Map  TimeStation Map 


TS Arrival Data
Arr Ord  #/Name Arrival DT TS Dst Avg This TS Avg Overall Ascending
 1 563 - Team Nico Ultracycling - In Fight against Cancer   06/15/2019 12:22 50.22  6.01  9.62 
 2 605 - Christian Echavarria  06/15/2019 7:42 50.22  5.46  10.12 
 3 R116 - Philippe May  06/15/2019 6:38 50.22  10.32  10.14 
 4 607 - Sabine Bird (Team Bean)  06/15/2019 6:04 50.22  9.45  10.28 
 5 R112 - John Hoopingarner  06/15/2019 4:43 50.22  9.05  10.37 
 6 R119 - Team BlueLine (Martha Hall)  06/15/2019 4:23 50.22  9.24  10.39 
 7 R105 - 2nd Chance Racing (Craig Johnson)  06/15/2019 4:00 50.22  7.55  10.46 
 8 R115 - Kym Louie  06/15/2019 3:03 50.22  9.05  10.55 
 9 R122 - Kirk Gentle  06/15/2019 2:45 50.22  7.71  10.6 
 10 R121 - Ironmae (Rosecler Costa)  06/15/2019 2:20 50.22  9.57  10.64 
 11 R117 - ROGIE (Roger Foote)  06/15/2019 2:20 50.22  10.54  10.66 
 12 R114 - Krishna Prakash  06/15/2019 2:06 50.22  8.44  10.69 
 13 R106 - Damaceleste.com (Valentina Tanzi)  06/15/2019 2:00 50.22  3.12  10.69 
 14 527 - TALABARDON (Herve Talabardon)  06/15/2019 3:00 50.22  9.39  10.71 
 15 608 - Elin Starup  06/15/2019 1:48 50.22  8.89  10.81 
 16 R110 - James Golding  06/14/2019 23:20 50.22  22.83  11.07 
 17 399 - Valerio Zamboni  06/15/2019 0:09 50.22  8.97  11.11 
 18 424 - Team i RON man Veterans supporting Veterans  06/14/2019 23:50 50.22  12.66  11.15 
 19 R84 - James Jason Ingels  06/14/2019 21:29 50.22  10.18  11.35 
 20 610 - Kabir Rachure  06/14/2019 20:19 50.22  12.61  11.64 
 21 611 - Marcelo Soares " MIXIRICA "  06/14/2019 19:25 50.22  9.39  11.77 
 22 510 - John C. Tarlton  06/14/2019 19:28 50.22  12.77  11.79 
 23 539 - Kari Rouvinen  06/14/2019 19:28 50.22  17.02  11.79 
 24 618 - GREGORY ROBINSON  06/14/2019 18:46 50.22  17.42  11.86 
 25 559 - Team Martin RAAM 2019 (Martin Bergmeister)  06/14/2019 18:45 50.22  11.12  11.9 
 26 411 - Geoff Brunner  06/14/2019 18:24 50.22  14.01  11.97 
 27 R103 - Chris Davies  06/14/2019 17:24 50.22  14.77  11.97 
 28 R104 - Team everve Christian (Christian Beichel)  06/14/2019 16:03 50.22  14.15  12.19 
 29 367 - Daniela Genovesi  06/14/2019 15:57 50.22  15.78  12.31 
 30 604 - Chieko Ozawa  06/14/2019 15:24 50.22  10.57  12.39 
 31 R120 - Team Next Step (Peter Pedersen)  06/14/2019 14:13 50.22  12.25  12.48 
 32 568 - Alexandra Meixner  06/14/2019 14:19 50.22  11.82  12.59 
 33 416 - Leah Goldstein  06/14/2019 14:01 50.22  11.5  12.65 
 34 161 - Seana Hogan  06/14/2019 13:29 50.22  8.37  12.75 
 35 623 - Ultra Paka Racing Team (Daniel Polman)  06/14/2019 12:38 50.22  14.35  12.91 
 36 615 - Philipp Amhof  06/14/2019 12:40 50.22  13.76  12.92 
 37 620 - Team Jefferson (Allan Jefferson)  06/14/2019 11:25 50.22  10.69  13.15 
 38 603 - Alan Bradley  06/14/2019 11:01 50.22  11.91  13.27 
 39 442 - Joe Barr  06/14/2019 10:29 50.22  10.21  13.4 
 40 622 - Thomas Odom-Team Kyle Pease Foundation  06/14/2019 9:50 50.22  11.86  13.47 
 41 R124 - Andres Rodriguez  06/14/2019 8:15 50.22  13.89  13.62 
 42 329 - Peter Oyler  06/14/2019 9:03 50.22  12.61  13.72 
 43 T210 - Bike Wine Team  06/18/2019 7:33 50.22  12.71  13.73 
 44 R111 - Jennifer Orr  06/14/2019 7:05 50.22  10.46  13.86 
 45 T409 - Serpentine Golden Girls  06/18/2019 5:35 50.22  13.95  14.2 
 46 349 - Mark Pattinson  06/14/2019 6:40 50.22  7.21  14.24 
 47 R209 - Workhorses  06/14/2019 4:48 50.22  10.96  14.33 
 48 T203 - JPsDuo  06/18/2019 4:34 50.22  11.77  14.37 
 49 R201 - IN OUR PRIME  06/14/2019 4:04 50.22  12.71  14.52 
 50 529 - Isa Pulver  06/14/2019 4:32 50.22  13.63  14.63 
 51 T205 - Prevent Breast Cancer powered by Endomag  06/18/2019 3:30 50.22  11.68  14.64 
 52 R203 - Mike 'n' Jay Giretto con Amici  06/14/2019 3:23 50.22  12.82  14.68 
 53 T207 - Team Life Time  06/18/2019 3:04 50.22  11.29  14.75 
 54 617 - SOLO.kiwi (Craig Harper)  06/14/2019 2:56 50.22  12.25  15.06 
 55 T200 - AIR RELAX GoPro TEAM BRASIL  06/18/2019 1:38 50.22  14.7  15.08 
 56 288 - Dave Haase  06/14/2019 2:55 50.22  13.89  15.17 
 57 T208 - Team Machine  06/18/2019 1:01 50.22  14.7  15.28 
 58 612 - Markus K. Brandl  06/14/2019 2:06 50.22  12.61  15.3 
 59 609 - Jakob Olsen  06/14/2019 1:49 50.22  12.77  15.39 
 60 T801 - Mind Over Matter  06/17/2019 23:58 50.22  12.88  15.66 
 61 T417 - Team4RAAM 2019 powered by TGW Living Logistics  06/17/2019 23:32 50.22  13.22  15.77 
 62 R402 - SUWOS  06/13/2019 22:57 50.22  15.3  15.81 
 63 T402 - EA/WFP RAAM Team  06/17/2019 22:28 50.22  14.01  16 
 64 T806 - Team SuperMarrow  06/17/2019 22:38 50.22  16.03  16.06 
 65 279 - Marko Baloh  06/13/2019 23:23 50.22  13.82  16.15 
 66 T413 - TEAM BRASIL - SKIPPER  06/17/2019 21:50 50.22  14.28  16.24 
 67 T204 - Lucan CRC  06/17/2019 20:03 50.22  15.07  16.69 
 68 T415 - TEAM FIRE VELO 935  06/17/2019 19:43 50.22  15.78  16.91 
 69 T206 - Project Linear Acceleration  06/17/2019 19:13 50.22  16.47  16.97 
 70 T405 - High Rollers  06/17/2019 19:00 50.22  19.19  17.09 
 71 T414 - Brazil Nuts  06/17/2019 18:45 50.22  18.26  17.22 
 72 T803 - Team EndoPark  06/17/2019 18:40 50.22  16.83  17.29 
 73 T410 - Soap-Aid  06/17/2019 18:26 50.22  22.16  17.3 
 74 R205 - Team OB2  06/13/2019 18:04 50.22  18.72  17.36 
 75 T202 - Integra Medical - BAA Racing  06/17/2019 17:56 50.22  15.78  17.37 
 76 R200 - EY Legacy Builders 2019  06/13/2019 17:35 50.22  17.83  17.55 
 77 T403 - EKJ Denmark  06/17/2019 17:21 50.22  19.07  17.64 
 78 R400 - HTX Velo Femme  06/13/2019 17:08 50.22  17.83  17.66 
 79 T418 - The Opportunists  06/17/2019 16:58 50.22  15.86  17.86 
 80 R401 - San Diego Sports Medicine/Zoca  06/13/2019 15:29 50.22  17.72  18.26 
 81 T400 - Cantastic4  06/17/2019 14:59 50.22  18.15  18.49 
 82 377 - Christoph Strasser  06/13/2019 16:24 50.22  20.09  18.52 
 83 T808 - Antonia's Friends 2019  06/17/2019 15:11 50.22  16.38  18.59 
 84 T804 - Team FSHD Skyland Trail  06/17/2019 15:02 50.22  17.72  18.62 
 85 T406 - Operation Walk Midwest  06/17/2019 14:45 50.22  17.62  18.62 
 86 T408 - Radeln-fuer-Kinder (Cycling-for-Kids)  06/17/2019 14:45 50.22  18.83  18.63 
 87 T416 - Team Rotary Raams Polio  06/17/2019 14:18 50.22  18.83  18.87 
 88 T416 - Team Rotary Raams Polio  06/17/2019 14:18 50.22  18.83  18.87 
 89 T802 - Scorchers  06/17/2019 13:40 50.22  19.95  19.16 
 90 T807 - Team ZOE International  06/17/2019 13:10 50.22  18.37  19.41 
 91 T412 - Team Aspect  06/17/2019 12:31 50.22  20.36  19.58 
 92 T407 - Julian Becker   06/17/2019 12:25 50.22  18.04  19.59 
 93 T805 - Team Oceanside  06/17/2019 12:18 50.22  19.19  19.77 
 94 R403 - Team Viasat-Denver  06/13/2019 11:27 50.22  16.74  19.9 
 95 T201 - EAT WELL  06/17/2019 11:05 50.22  17.94  20.07 
 96 T404 - Gentlemen of speed  06/17/2019 9:35 50.22  19.07  20.88 
 97 T401 - Data Techniques powered by Networks Centre  06/17/2019 8:59 50.22  16.56  21.15 
 98 R404 - Team Viasat - Carlsbad  06/13/2019 8:28 50.22  18.37  21.32 
 99 T800 - Backstedt Racing Project 14  06/17/2019 7:23 50.22  20.36  22.16 
 100 T411 - team alpha - tischlerei groemmer  06/17/2019 7:08 50.22  20.36  22.23